When you browse on this site, cookies collect data to enhance your experience and personalize the content and advertising you see.
Visit our Privacy Policy to learn more. By continuing to use the site, you agree to this use of cookies and data.
  • In Hungary
  • List of Countries
  • For 7 days
  • Water Temperature
  • Weather Map
  • News
  • Weather Widgets
  • user-avatar
    Login

    Hourly Weather Camasca

    Today, 13 November, Wednesday

    Time Temperature Precipitation Wind Pressure Humidity
    00:00 +20°C° 0 mm 2 mps 705 mmHg 91%
    01:00 +20°C° 0 mm 2 mps 705 mmHg 91%
    02:00 +20°C° 0 mm 2 mps 704 mmHg 91%
    03:00 +20°C° 0 mm 2 mps 704 mmHg 91%
    04:00 +20°C° 0 mm 2 mps 704 mmHg 91%
    05:00 +19°C° 0 mm 2 mps 705 mmHg 90%
    06:00 +19°C° 0 mm 2 mps 705 mmHg 90%
    07:00 +23°C° 0 mm 1 mps 706 mmHg 83%
    08:00 +25°C° 0 mm 1 mps 706 mmHg 76%
    09:00 +27°C° 0 mm 1 mps 707 mmHg 69%
    10:00 +28°C° 0 mm 1 mps 707 mmHg 65%
    11:00 +29°C° 0 mm 1 mps 707 mmHg 61%
    12:00 +30°C° 0 mm 1 mps 706 mmHg 58%
    13:00 +30°C° 0.5 mm 1 mps 705 mmHg 63%
    14:00 +29°C° 0.5 mm 1 mps 705 mmHg 68%
    15:00 +29°C° 0.5 mm 1 mps 704 mmHg 73%
    16:00 +27°C° 0.9 mm 1 mps 704 mmHg 79%
    17:00 +25°C° 0.9 mm 1 mps 704 mmHg 85%
    18:00 +23°C° 0.9 mm 1 mps 704 mmHg 91%
    19:00 +23°C° 0.1 mm 1 mps 705 mmHg 92%
    20:00 +22°C° 0.1 mm 1 mps 705 mmHg 93%
    21:00 +22°C° 0.1 mm 1 mps 706 mmHg 93%
    22:00 +21°C° 0.1 mm 1 mps 706 mmHg 93%
    23:00 +21°C° 0.1 mm 1 mps 706 mmHg 93%

    Tomorrow, 14 November, Thursday

    Time Temperature Precipitation Wind Pressure Humidity
    00:00 +21°C° 0.1 mm 1 mps 705 mmHg 93%
    01:00 +21°C° 0 mm 1 mps 705 mmHg 92%
    02:00 +20°C° 0 mm 1 mps 705 mmHg 92%
    03:00 +20°C° 0 mm 1 mps 705 mmHg 92%
    04:00 +20°C° 0 mm 1 mps 705 mmHg 92%
    05:00 +20°C° 0 mm 1 mps 705 mmHg 92%
    06:00 +20°C° 0 mm 1 mps 705 mmHg 92%
    07:00 +22°C° 0 mm 1 mps 706 mmHg 85%
    08:00 +25°C° 0 mm 1 mps 707 mmHg 78%
    09:00 +25°C° 0 mm 0 mps 708 mmHg 70%
    10:00 +28°C° 0 mm 1 mps 707 mmHg 68%
    11:00 +29°C° 0 mm 1 mps 707 mmHg 65%
    12:00 +30°C° 0 mm 1 mps 706 mmHg 62%
    13:00 +29°C° 0.4 mm 1 mps 706 mmHg 65%
    14:00 +29°C° 0.4 mm 1 mps 705 mmHg 68%
    15:00 +29°C° 0.4 mm 1 mps 705 mmHg 71%
    16:00 +25°C° 0.5 mm 0 mps 705 mmHg 76%
    17:00 +23°C° 0.5 mm 0 mps 705 mmHg 82%
    18:00 +22°C° 0.5 mm 0 mps 705 mmHg 88%
    19:00 +21°C° 0.6 mm 0 mps 705 mmHg 90%
    20:00 +23°C° 0.6 mm 1 mps 706 mmHg 92%
    21:00 +22°C° 0.6 mm 1 mps 707 mmHg 93%
    22:00 +22°C° 1.1 mm 1 mps 706 mmHg 94%
    23:00 +22°C° 1.1 mm 1 mps 706 mmHg 94%

    Day after tomorrow, 15 November, Friday

    Time Temperature Precipitation Wind Pressure Humidity
    00:00 +21°C° 1.1 mm 1 mps 706 mmHg 94%
    01:00 +21°C° 0.2 mm 1 mps 706 mmHg 94%
    02:00 +21°C° 0.2 mm 1 mps 705 mmHg 95%
    03:00 +21°C° 0.2 mm 1 mps 705 mmHg 95%
    04:00 +21°C° 0 mm 1 mps 706 mmHg 94%
    05:00 +21°C° 0 mm 1 mps 706 mmHg 94%
    06:00 +20°C° 0 mm 1 mps 706 mmHg 94%
    07:00 +23°C° 0 mm 1 mps 707 mmHg 87%
    08:00 +25°C° 0 mm 1 mps 707 mmHg 80%
    09:00 +27°C° 0 mm 1 mps 708 mmHg 73%
    10:00 +28°C° 0 mm 1 mps 707 mmHg 68%
    11:00 +29°C° 0 mm 1 mps 707 mmHg 63%
    12:00 +31°C° 0 mm 1 mps 706 mmHg 58%
    13:00 +30°C° 0.4 mm 1 mps 706 mmHg 62%
    14:00 +30°C° 0.4 mm 1 mps 705 mmHg 66%
    15:00 +29°C° 0.4 mm 1 mps 704 mmHg 70%
    16:00 +27°C° 0.9 mm 1 mps 705 mmHg 77%
    17:00 +25°C° 0.9 mm 1 mps 705 mmHg 83%
    18:00 +24°C° 0.9 mm 1 mps 705 mmHg 90%
    19:00 +23°C° 0.1 mm 1 mps 705 mmHg 91%
    20:00 +21°C° 0.1 mm 2 mps 706 mmHg 92%
    21:00 +21°C° 0.1 mm 2 mps 706 mmHg 93%
    22:00 +20°C° 0 mm 2 mps 706 mmHg 92%
    23:00 +20°C° 0 mm 2 mps 706 mmHg 92%

    16 November, Saturday

    Time Temperature Precipitation Wind Pressure Humidity
    00:00 +20°C° 0 mm 2 mps 705 mmHg 92%
    01:00 +20°C° 0 mm 2 mps 705 mmHg 92%
    02:00 +20°C° 0 mm 2 mps 705 mmHg 91%
    03:00 +20°C° 0 mm 2 mps 704 mmHg 91%
    04:00 +20°C° 0 mm 2 mps 705 mmHg 90%
    05:00 +20°C° 0 mm 2 mps 705 mmHg 90%
    06:00 +20°C° 0 mm 2 mps 705 mmHg 89%
    07:00 +23°C° 0 mm 1 mps 706 mmHg 82%
    08:00 +25°C° 0 mm 1 mps 706 mmHg 75%
    09:00 +27°C° 0 mm 1 mps 707 mmHg 68%
    10:00 +28°C° 0 mm 1 mps 707 mmHg 64%
    11:00 +30°C° 0 mm 1 mps 706 mmHg 60%
    12:00 +31°C° 0 mm 1 mps 706 mmHg 57%
    13:00 +30°C° 0.5 mm 1 mps 705 mmHg 61%
    14:00 +29°C° 0.5 mm 1 mps 705 mmHg 64%
    15:00 +29°C° 0.5 mm 1 mps 704 mmHg 68%
    16:00 +27°C° 0.2 mm 1 mps 704 mmHg 73%
    17:00 +25°C° 0.2 mm 2 mps 704 mmHg 77%
    18:00 +23°C° 0.2 mm 2 mps 704 mmHg 82%
    19:00 +23°C° 0 mm 2 mps 705 mmHg 82%
    20:00 +21°C° 0 mm 2 mps 705 mmHg 83%
    21:00 +20°C° 0 mm 2 mps 705 mmHg 83%
    22:00 +20°C° 0 mm 2 mps 705 mmHg 83%
    23:00 +20°C° 0 mm 2 mps 705 mmHg 83%

    17 November, Sunday

    Time Temperature Precipitation Wind Pressure Humidity
    00:00 +19°C° 0 mm 2 mps 705 mmHg 83%
    01:00 +19°C° 0 mm 2 mps 704 mmHg 83%
    02:00 +19°C° 0 mm 2 mps 704 mmHg 83%
    03:00 +19°C° 0 mm 2 mps 704 mmHg 83%
    04:00 +18°C° 0 mm 2 mps 704 mmHg 82%
    05:00 +18°C° 0 mm 2 mps 704 mmHg 82%
    06:00 +18°C° 0 mm 2 mps 704 mmHg 81%
    07:00 +21°C° 0 mm 1 mps 705 mmHg 75%
    08:00 +24°C° 0 mm 1 mps 705 mmHg 68%
    09:00 +26°C° 0 mm 1 mps 706 mmHg 61%
    10:00 +27°C° 0 mm 1 mps 706 mmHg 59%
    11:00 +29°C° 0 mm 1 mps 705 mmHg 56%
    12:00 +30°C° 0 mm 1 mps 705 mmHg 53%
    13:00 +30°C° 0 mm 1 mps 704 mmHg 56%
    14:00 +29°C° 0 mm 1 mps 704 mmHg 59%
    15:00 +29°C° 0 mm 1 mps 703 mmHg 63%
    16:00 +27°C° 0.1 mm 1 mps 703 mmHg 69%
    17:00 +25°C° 0.1 mm 1 mps 703 mmHg 76%
    18:00 +23°C° 0.1 mm 1 mps 703 mmHg 83%
    19:00 +23°C° 0 mm 1 mps 704 mmHg 84%
    20:00 +22°C° 0 mm 1 mps 704 mmHg 85%
    21:00 +21°C° 0 mm 2 mps 705 mmHg 86%
    22:00 +20°C° 0 mm 2 mps 704 mmHg 85%
    23:00 +20°C° 0 mm 2 mps 704 mmHg 85%

    18 November, Monday

    Time Temperature Precipitation Wind Pressure Humidity
    00:00 +20°C° 0 mm 2 mps 704 mmHg 85%
    01:00 +20°C° 0 mm 1 mps 704 mmHg 86%
    02:00 +20°C° 0 mm 1 mps 704 mmHg 86%
    03:00 +20°C° 0 mm 1 mps 703 mmHg 87%
    04:00 +20°C° 0 mm 1 mps 704 mmHg 87%
    05:00 +20°C° 0 mm 1 mps 704 mmHg 87%
    06:00 +19°C° 0 mm 1 mps 704 mmHg 88%
    07:00 +22°C° 0 mm 1 mps 705 mmHg 80%
    08:00 +24°C° 0 mm 1 mps 705 mmHg 72%
    09:00 +27°C° 0 mm 1 mps 706 mmHg 64%
    10:00 +28°C° 0 mm 1 mps 706 mmHg 61%
    11:00 +29°C° 0 mm 1 mps 705 mmHg 58%
    12:00 +30°C° 0 mm 1 mps 705 mmHg 54%
    13:00 +30°C° 0 mm 1 mps 704 mmHg 57%
    14:00 +29°C° 0 mm 1 mps 704 mmHg 59%
    15:00 +29°C° 0 mm 1 mps 703 mmHg 62%
    16:00 +27°C° 0.1 mm 1 mps 703 mmHg 69%
    17:00 +25°C° 0.1 mm 1 mps 703 mmHg 75%
    18:00 +24°C° 0.1 mm 1 mps 704 mmHg 82%
    19:00 +23°C° 0.1 mm 1 mps 704 mmHg 85%
    20:00 +22°C° 0.1 mm 1 mps 704 mmHg 87%
    21:00 +20°C° 0.1 mm 2 mps 705 mmHg 90%
    22:00 +20°C° 0 mm 2 mps 705 mmHg 89%
    23:00 +20°C° 0 mm 2 mps 705 mmHg 89%
    Show more